Flag for Germany Weather past 2 weeks in Germering, Bavaria, Germany

Now
61 °F

Sunny.


Feels Like: 61 °F
Forecast: 54 / 77 °F
Wind: 1 mph from North

Location: Oberpfaffenhofen

Current Time: Jul 31, 2015 at 9:26:41 AM

Latest Report: Jul 31, 2015 at 8:50 AM


Visibility: 10 mi

Pressure: 30.09 "Hg (28.24 "Hg at 538m altitude)

Humidity: 63%

Dew point: 48 °F

Location of GermeringLocation

Historic Weather in Germering — Graph

°F

Germering temperature yesterday

Maximum temperature yesterday: 68 °F (at 2:50 PM)
Minimum temperature yesterday: 48 °F (at 6:50 AM)
Average temperature yesterday: 63 °F

Past Weeks' High & Low Weather Summary

 TemperatureHumidityPressure
High93 °F (Jul 22, 1:50 PM)100% (Jul 20, 6:50 AM)30.15 "Hg (Jul 20, 6:50 AM)
Low46 °F (Jul 31, 6:50 AM)18% (Jul 17, 3:20 PM)29.77 "Hg (Jul 24, 6:50 PM)
Average74 °F57%29.98 "Hg
* Reported Jul 16 8:20 AM — Jul 31 8:20 AM, Germering, Weather by CustomWeather, © 2015

Note: Actual official high and low records may vary slightly from our data, if they occured in-between our weather recording intervals... More about our weather records

Advertising

Germering weather history for previous 24 hours

 ConditionsComfort  
Time TempWeatherWind HumidityBarometerVisibility
8:20 AM
Fri, Jul 31
59 °FSunny.No wind72%30.09 "Hg10 mi
7:50 AM57 °FSunny.No wind82%30.09 "Hg10 mi
7:20 AM50 °FSunny.2 mph94%30.09 "Hg10 mi
6:50 AM46 °FSunny.1 mph93%30.09 "Hg10 mi
7:50 PM
Thu, Jul 30
66 °FSunny.7 mph35%30.01 "Hg10 mi
7:20 PM66 °FSunny.9 mph40%30.01 "Hg10 mi
6:50 PM68 °FSunny.10 mph33%30.01 "Hg10 mi
6:20 PM68 °FPassing clouds.6 mph38%30.01 "HgN/A
5:50 PM68 °FPassing clouds.6 mph35%30.01 "HgN/A
5:20 PM66 °FScattered clouds.9 mph40%30.01 "HgN/A
4:50 PM68 °FScattered clouds.8 mph43%30.01 "HgN/A
4:20 PM66 °FScattered clouds.10 mph43%30.01 "HgN/A
3:50 PM66 °FScattered clouds.8 mph43%30.01 "HgN/A
3:20 PM68 °FScattered clouds.5 mph40%30.01 "HgN/A
2:50 PM68 °FScattered clouds.8 mph38%30.01 "HgN/A
2:20 PM64 °FScattered clouds.8 mph43%30.01 "HgN/A
1:50 PM66 °FScattered clouds.10 mph37%30.01 "HgN/A
1:20 PM64 °FPartly sunny.7 mph46%30.04 "HgN/A
12:50 PM64 °FPartly sunny.9 mph46%30.04 "HgN/A
12:20 PM63 °FScattered clouds.6 mph45%30.04 "HgN/A
11:50 AM61 °FPartly sunny.7 mph52%30.04 "HgN/A
11:20 AM63 °FPartly sunny.8 mph52%30.04 "HgN/A
10:20 AM61 °FSunny.5 mph59%30.04 "Hg10 mi
9:50 AM57 °FPassing clouds.6 mph72%30.04 "HgN/A
9:20 AM57 °FSunny.7 mph72%30.04 "Hg10 mi
Weather by CustomWeather, © 2015

See weather overviewHow to use our weather pages